Location: Banksville Park
(38.5557°N, 75.1182°W)
Time: 17:29:12
(UTC+00:00)

Cosmos 1707 - Pass Details

Date: 19 September 2020
Orbit: 515 x 530 km, 82.5° (Epoch: 30 October)

Event Time Altitude Azimuth Distance (km) Brightness Sun altitude
Rises 00:03:22 0° 1° (N) 2,646 6.5 -12.5°
Reaches altitude 10° 00:05:37 10° 9° (N) 1,752 5.4 -13.0°
Maximum altitude 00:09:13 38° 79° (E) 805 3.2 -13.7°
Enters shadow 00:11:27 19° 137° (SE) 1,258 4.2 -14.1°
